Location: *
(49.4547°N, 7.9131°E)
Time: 11:59:26
(UTC+00:00)

Cosmos 1892 Rocket - Pass Details

Date: 22 September 2019
Orbit: 605 x 634 km, 82.5° (Epoch: 21 October)

Event Time Altitude Azimuth Distance (km) Brightness Sun altitude
Rises 19:01:23 0° 347° (NNW) 2,930 7.5 -15.8°
Reaches altitude 10° 19:03:39 10° 345° (NNW) 2,014 6.7 -16.2°
Maximum altitude 19:08:04 65° 264° (W) 690 4.0 -16.9°
Drops below altitude 10° 19:12:24 10° 183° (S) 1,979 6.0 -17.5°
Enters shadow 19:13:49 - 181° (S) 2,549 6.5 -17.7°
